カタログに戻る

SAUDISAT 1A

運用中アマチュア無線LEO
NORAD 26545·PAYLOAD·🇸🇦 Saudi Arabia

打ち上げ Sep 26, 2000 から Baikonur Cosmodrome

Loading…

次のパス (今後24時間)

TLE

最新Source: Space-Track

元期: Sep 14, 2026, 08:21 UTC

1 26545U 00057A   26257.34792004  .00000963  00000-0  10502-3 0  9994
2 26545  64.5527  17.1582 0049255 288.9594  70.6183 14.93362687406348

AllMySatでSAUDISAT 1Aをリアルタイム追跡

Download on the App Store